Location: Unspecified
(0.0000°N, 0.0000°E)
Time: 16:40:25
(UTC+00:00)

Vanguard 1 - All Passes

Search period start: 18 June 2019 00:00
Search period end: 28 June 2019 00:00
Orbit: 654 x 3829 km, 34.2° (Epoch: 17 June)

Date Brightness Start Highest point End Pass type
(mag) Time Alt. Az. Time Alt. Az. Time Alt. Az.
18 Jun - 01:48:18 10° WSW 02:09:42 51° NW 02:23:23 10° NNE visible
18 Jun - 04:28:08 10° WNW 04:34:21 13° NW 04:39:23 10° N visible
18 Jun - 11:43:16 10° NW 11:47:35 48° NE 11:53:19 10° ESE daylight
18 Jun - 14:03:53 10° WSW 14:08:41 25° SSW 14:15:49 10° SSE daylight
18 Jun - 16:31:08 10° SSW 16:34:26 11° S 16:38:16 10° SSE daylight
18 Jun - 18:55:24 10° SSW 19:05:22 17° SSE 19:17:37 10° SE visible
18 Jun - 21:17:05 10° SSW 21:36:35 40° SSE 21:56:44 10° E visible
18 Jun - 23:41:13 10° SW 00:05:15 86° SE 00:23:26 10° NE visible
19 Jun - 02:11:33 10° WSW 02:31:06 40° NW 02:43:54 10° NNE visible
19 Jun - 12:04:01 10° NW 12:08:31 88° SW 12:14:48 10° SE daylight
19 Jun - 14:26:20 10° WSW 14:30:32 17° SSW 14:36:11 10° SSE daylight
19 Jun - 16:56:05 10° S 16:57:25 10° S 16:58:49 10° S daylight
19 Jun - 19:16:31 10° SSW 19:28:37 21° SSE 19:43:33 10° ESE visible
19 Jun - 21:38:03 10° SW 21:58:52 49° SE 22:19:38 10° ENE visible
20 Jun - 00:02:57 10° WSW 00:26:54 79° NW 00:44:37 10° NE visible
20 Jun - 02:35:34 10° W 02:52:39 30° NW 03:04:14 10° NNE visible
20 Jun - 10:07:04 10° N 10:09:33 14° NNE 10:12:02 10° ENE daylight
20 Jun - 12:25:11 10° WNW 12:29:36 48° SSW 12:35:53 10° SE daylight
20 Jun - 14:49:50 10° SW 14:52:37 12° SSW 14:55:53 10° S daylight
20 Jun - 17:18:52 10° S 17:20:35 10° S 17:22:25 10° SSE daylight
20 Jun - 19:37:23 10° SSW 19:51:33 26° SSE 20:08:57 10° ESE visible
20 Jun - 21:59:06 10° SW 22:20:56 61° SE 22:42:00 10° ENE visible
21 Jun - 00:25:03 10° WSW 00:48:29 65° NW 01:05:35 10° NE visible
21 Jun - 03:00:27 10° W 03:14:26 23° NW 03:24:25 10° NNE visible
21 Jun - 10:26:48 10° NNW 10:30:39 27° NE 10:34:39 10° E daylight
21 Jun - 12:46:47 10° W 12:50:55 28° SSW 12:56:35 10° SSE daylight
21 Jun - 17:39:19 10° S 17:43:50 12° SSE 17:49:01 10° SSE daylight
21 Jun - 19:58:09 10° SSW 20:14:09 32° SSE 20:33:33 10° E visible
21 Jun - 22:20:16 10° SW 22:42:49 73° SE 23:03:55 10° ENE visible
22 Jun - 00:47:37 10° WSW 01:10:05 52° NW 01:26:23 10° NE visible
22 Jun - 03:26:23 10° WNW 03:36:32 17° NNW 03:44:19 10° N visible
22 Jun - 10:47:15 10° NW 10:51:38 53° NE 10:56:24 10° ESE daylight
22 Jun - 13:09:01 10° WSW 13:12:27 17° SSW 13:16:47 10° SSE daylight
22 Jun - 17:59:42 10° S 18:06:58 14° SSE 18:15:54 10° SE daylight
22 Jun - 20:18:55 10° SSW 20:36:25 40° SE 20:57:21 10° E visible
22 Jun - 22:41:38 10° SW 23:04:36 88° SE 23:25:29 10° NE visible
23 Jun - 01:10:44 10° WSW 01:31:45 41° NW 01:47:02 10° NNE visible
23 Jun - 03:53:40 10° NW 03:58:58 12° NNW 04:03:31 10° N visible
23 Jun - 11:08:10 10° WNW 11:12:36 76° SW 11:17:39 10° SE daylight
23 Jun - 13:32:42 10° SSW 13:34:12 11° SSW 13:35:50 10° S daylight
23 Jun - 18:20:04 10° SSW 18:29:51 18° SSE 18:42:26 10° ESE visible
23 Jun - 20:39:42 10° SW 20:58:26 50° SE 21:20:28 10° ENE visible
23 Jun - 23:03:15 10° WSW 23:26:21 78° NW 23:46:46 10° NE visible
24 Jun - 01:34:36 10° W 01:53:37 32° NW 02:07:35 10° NNE visible
24 Jun - 09:09:53 10° NNW 09:13:25 18° NNE 09:16:31 10° ENE daylight
24 Jun - 11:29:31 10° WNW 11:33:39 38° SSW 11:38:28 10° SE daylight
24 Jun - 18:40:29 10° SSW 18:52:24 24° SSE 19:08:14 10° ESE visible
24 Jun - 21:00:36 10° SW 21:20:17 61° SE 21:42:59 10° ENE visible
24 Jun - 23:25:13 10° WSW 23:48:05 65° NW 00:07:51 10° NE visible
25 Jun - 01:59:17 10° W 02:15:45 25° NNW 02:28:03 10° NNE visible
25 Jun - 09:30:03 10° NNW 09:34:40 32° NNE 09:38:39 10° E daylight
25 Jun - 11:51:26 10° W 11:54:51 21° SSW 11:58:49 10° SSE daylight
25 Jun - 19:00:57 10° SSW 19:14:38 31° SE 19:33:08 10° E visible
25 Jun - 21:21:39 10° SW 21:42:03 75° SE 22:05:02 10° ENE visible
25 Jun - 23:47:37 10° WSW 00:09:53 52° NW 00:28:46 10° NE visible
26 Jun - 02:24:53 10° WNW 02:38:13 19° NNW 02:48:26 10° NNE visible
26 Jun - 09:50:44 10° NW 09:55:45 63° NE 10:00:08 10° ESE daylight
26 Jun - 12:14:30 10° SW 12:16:16 12° SSW 12:18:10 10° S daylight
26 Jun - 17:05:30 10° S 17:09:03 11° SSE 17:13:04 10° SE daylight
26 Jun - 19:21:28 10° SSW 19:36:34 39° SE 19:57:10 10° E visible
26 Jun - 21:42:53 10° SW 22:03:46 89° SE 22:26:44 10° NE visible
27 Jun - 00:10:35 10° W 00:31:51 42° NW 00:49:34 10° NNE visible
27 Jun - 02:51:18 10° NW 03:00:59 15° NNW 03:08:47 10° N visible
27 Jun - 07:51:58 10° NNW 07:55:45 15° NNE 07:58:49 10° ENE daylight
27 Jun - 10:11:51 10° WNW 10:16:44 64° SW 10:21:10 10° SE daylight
27 Jun - 17:24:21 10° S 17:31:35 15° SSE 17:40:50 10° ESE daylight
27 Jun - 19:42:07 10° SSW 19:58:18 49° SE 20:20:27 10° ENE visible
27 Jun - 22:04:23 10° WSW 22:25:32 77° NW 22:48:08 10° NE visible
